SL-8 R/B, 1575

Orbit data source: Space-Track

SL-8 R/B, 1575 is space debris in LEO originally from a launch on Fri, 03 Sep 1965 UTC launched from the Tyuratam Missile And Space Complex (TTMTR). Debris objects in space refer to the collection of defunct objects orbiting the Earth. Examples of debris include non-operational satellites, rocket bodies, and fragments generated from explosions, collisions, or faulty payload assembly.

Loading next visibility...
Identifier
1575, 1965-070F
Orbit
LEO
Country
Flag of CISCIS
Related business
Manufacturer
Yuzhnoe
Mission
Spacecraft
Bus & Motor
S3, Unknown motor
Mass
1,434 kg wet, 1,434 kg dry
Launch date (UTC)
1965-09-03 (61 years ago)
Launch vehicle
Unknown
Launch site
Tyuratam Missile And Space Complex (TTMTR)
Object type
Payload
Rocket body
Debris
Shape & HBR
CYL, 1.1 m
Radar Cross Section
Large (>1 m²)

Expand to show TLE details & history
Last TLE update: 7 hours ago

TLE from 7 hours ago
0 SL-8 R/B
1 01575U 65070F   26267.24279681 -.00000110  00000-0 -78428-4 0  9995
2 01575  56.1237 201.2331 0098093 214.4798 311.2708 12.57010316803212
Epoch: 2026-09-24T05:49Z
TLE epoch observation values (Epoch: 2026-09-24T05:49:37.644Z)
Latitude
12.48521°
Longitude
-77.76254°
Altitude
1,385.5 km
Speed
7.191 km/s
True Right ascension
00h 50m 54s
True Declination
12° 25' 07"
Sunlit
Object was in full shadow at epoch
Visualization orbit readout
Latitude
Unknown
Longitude
Unknown
Altitude
Unknown
Speed
Unknown
Apparent Right ascension
Unknown
Apparent Declination
Unknown
Sunlit
N/A
Visualization observer readout
Local Sidereal Time
06:10:37
Azimuth
Unknown
Elevation
Unknown
Doppler factor
Unknown
Orbital elements
Apogee altitude
1,511.765 km
Perigee altitude
1,358.48 km
Semi-major axis
7,813.259 km
Eccentricity
0.00981
Inclination
56.1237°
RAAN
201.2331°
Arg. of periapsis
214.4798°
True anomaly
310.4191°
Mean anomaly
311.2708°
Eccentric anomaly
310.84564°
Mean motion
3.14264 °/min
Orbital period
114.55 mins
BSTAR
-0.000078428
Loading maneuver chart data...
Computing Atmospheric mass density...
Loading historical data...
Loading historical data...
Loading historical data...
Loading historical data...
Loading historical data...
Loading historical data...
Loading historical data...
Other satellites on launch #70 in the year 1965 (1965-09-03 UTC)

Documentation

Showing up to 5 results
|